Time,TemperatureF,DewpointF,PressureIn,WindDirection,WindDirectionDegrees,WindSpeedMPH,WindSpeedGustMPH,Humidity,HourlyPrecipIn,Conditions,Clouds,dailyrainin,SolarRadiationWatts/m^2,SoftwareType,DateUTC
2013-07-02 00:00:00,72.4,69.3,30.00,SSW,192,0.0,3.0,90,0.00,,,0.00,0,WeatherCatV1.10B1570,2013-07-02 04:00:00,
2013-07-02 00:01:00,72.4,69.3,30.00,SSW,192,1.0,3.0,90,0.00,,,0.00,0,WeatherCatV1.10B1570,2013-07-02 04:01:00,
2013-07-02 00:06:00,72.4,69.3,30.01,SSE,164,0.0,2.0,90,0.00,,,0.00,0,WeatherCatV1.10B1570,2013-07-02 04:06:00,
2013-07-02 00:11:00,72.4,69.3,30.01,South,174,1.0,3.0,90,0.00,,,0.00,0,WeatherCatV1.10B1570,2013-07-02 04:11:00,
2013-07-02 00:16:00,72.3,69.2,30.01,South,174,0.0,1.0,90,0.00,,,0.00,0,WeatherCatV1.10B1570,2013-07-02 04:16:00,
2013-07-02 00:22:00,72.2,69.1,30.01,South,179,1.0,3.0,90,0.00,,,0.00,0,WeatherCatV1.10B1570,2013-07-02 04:22:00,
2013-07-02 00:27:00,72.1,69.3,30.01,South,179,0.0,2.0,91,0.00,,,0.00,0,WeatherCatV1.10B1570,2013-07-02 04:27:00,
2013-07-02 00:32:00,72.1,69.3,30.01,South,179,0.0,0.0,91,0.00,,,0.00,0,WeatherCatV1.10B1570,2013-07-02 04:32:00,
2013-07-02 00:37:00,72.1,69.3,30.01,South,179,2.0,2.0,91,0.00,,,0.00,0,WeatherCatV1.10B1570,2013-07-02 04:37:00,
2013-07-02 00:42:00,72.0,69.2,30.00,South,186,0.0,1.0,91,0.00,,,0.00,0,WeatherCatV1.10B1570,2013-07-02 04:42:00,
2013-07-02 00:47:00,72.1,69.3,30.00,South,186,2.0,3.0,91,0.00,,,0.00,0,WeatherCatV1.10B1570,2013-07-02 04:47:00,
2013-07-02 00:50:00,72.0,69.2,30.00,South,186,1.0,2.0,91,0.00,,,0.00,0,WeatherCatV1.10B1570,2013-07-02 04:50:00,
2013-07-02 00:55:00,71.9,69.1,30.00,SSE,167,1.0,3.0,91,0.00,,,0.00,0,WeatherCatV1.10B1570,2013-07-02 04:55:00,
2013-07-02 01:00:00,71.9,69.1,30.00,SSE,166,0.0,3.0,91,0.00,,,0.00,0,WeatherCatV1.10B1570,2013-07-02 05:00:00,
2013-07-02 01:05:00,71.9,69.1,30.00,SSE,167,0.0,2.0,91,0.00,,,0.00,0,WeatherCatV1.10B1570,2013-07-02 05:05:00,
2013-07-02 01:10:00,71.8,69.0,30.00,South,182,0.0,2.0,91,0.00,,,0.00,0,WeatherCatV1.10B1570,2013-07-02 05:10:00,
2013-07-02 01:15:00,71.9,69.1,30.00,South,176,2.0,3.0,91,0.00,,,0.00,0,WeatherCatV1.10B1570,2013-07-02 05:15:00,
2013-07-02 01:20:00,72.0,69.2,30.00,South,177,2.0,2.0,91,0.00,,,0.00,0,WeatherCatV1.10B1570,2013-07-02 05:20:00,
2013-07-02 01:25:00,72.0,69.2,30.00,South,190,1.0,3.0,91,0.00,,,0.00,0,WeatherCatV1.10B1570,2013-07-02 05:25:00,
2013-07-02 01:30:00,72.1,69.3,30.00,SSE,168,0.0,2.0,91,0.00,,,0.00,0,WeatherCatV1.10B1570,2013-07-02 05:30:00,
2013-07-02 01:35:00,72.1,69.3,30.00,South,191,1.0,2.0,91,0.00,,,0.00,0,WeatherCatV1.10B1570,2013-07-02 05:35:00,
2013-07-02 01:40:00,72.1,69.3,30.00,South,180,2.0,3.0,91,0.00,,,0.00,0,WeatherCatV1.10B1570,2013-07-02 05:40:00,
2013-07-02 01:45:00,72.2,69.4,30.00,South,185,1.0,2.0,91,0.00,,,0.00,0,WeatherCatV1.10B1570,2013-07-02 05:45:00,
2013-07-02 01:50:00,72.1,69.3,30.00,South,171,3.0,3.0,91,0.00,,,0.00,0,WeatherCatV1.10B1570,2013-07-02 05:50:00,
2013-07-02 01:55:00,72.1,69.3,30.00,SSE,168,0.0,3.0,91,0.00,,,0.00,0,WeatherCatV1.10B1570,2013-07-02 05:55:00,
2013-07-02 02:00:00,72.0,69.2,30.00,South,171,0.0,2.0,91,0.00,,,0.00,0,WeatherCatV1.10B1570,2013-07-02 06:00:00,
2013-07-02 02:05:00,72.0,69.2,30.00,South,191,1.0,2.0,91,0.00,,,0.00,0,WeatherCatV1.10B1570,2013-07-02 06:05:00,
2013-07-02 02:10:00,72.1,69.3,30.00,SSE,159,0.0,3.0,91,0.00,,,0.00,0,WeatherCatV1.10B1570,2013-07-02 06:10:00,
2013-07-02 02:15:00,72.1,69.3,30.00,SSE,163,2.0,2.0,91,0.00,,,0.00,0,WeatherCatV1.10B1570,2013-07-02 06:15:00,
2013-07-02 02:20:00,72.1,69.3,30.00,SSE,166,0.0,2.0,91,0.00,,,0.00,0,WeatherCatV1.10B1570,2013-07-02 06:20:00,
2013-07-02 02:25:00,72.1,69.3,30.00,SSE,166,1.0,2.0,91,0.00,,,0.00,0,WeatherCatV1.10B1570,2013-07-02 06:25:00,
2013-07-02 02:30:00,72.1,69.6,30.00,SSE,166,1.0,2.0,92,0.00,,,0.00,0,WeatherCatV1.10B1570,2013-07-02 06:30:00,
2013-07-02 02:35:00,72.1,69.6,30.00,SSE,166,1.0,4.0,92,0.00,,,0.00,0,WeatherCatV1.10B1570,2013-07-02 06:35:00,
2013-07-02 02:40:00,72.1,69.6,30.00,SSW,195,3.0,3.0,92,0.00,,,0.00,0,WeatherCatV1.10B1570,2013-07-02 06:40:00,
2013-07-02 02:45:00,72.1,69.6,30.00,SSE,155,2.0,3.0,92,0.00,,,0.00,0,WeatherCatV1.10B1570,2013-07-02 06:45:00,
2013-07-02 02:50:00,72.2,69.7,30.00,South,188,1.0,3.0,92,0.00,,,0.00,0,WeatherCatV1.10B1570,2013-07-02 06:50:00,
2013-07-02 02:55:00,72.2,69.7,30.00,South,184,2.0,2.0,92,0.00,,,0.00,0,WeatherCatV1.10B1570,2013-07-02 06:55:00,
2013-07-02 03:00:00,72.2,69.7,30.00,SSE,164,1.0,4.0,92,0.00,,,0.00,0,WeatherCatV1.10B1570,2013-07-02 07:00:00,
2013-07-02 03:05:00,72.3,69.8,30.00,South,184,1.0,3.0,92,0.00,,,0.00,0,WeatherCatV1.10B1570,2013-07-02 07:05:00,
2013-07-02 03:10:00,72.3,69.8,30.00,SSE,167,2.0,3.0,92,0.00,,,0.00,0,WeatherCatV1.10B1570,2013-07-02 07:10:00,
2013-07-02 03:15:00,72.3,69.8,30.00,SSE,162,3.0,5.0,92,0.00,,,0.00,0,WeatherCatV1.10B1570,2013-07-02 07:15:00,
2013-07-02 03:20:00,72.2,69.7,30.00,South,173,3.0,6.0,92,0.00,,,0.00,0,WeatherCatV1.10B1570,2013-07-02 07:20:00,
2013-07-02 03:25:00,72.0,69.5,30.01,South,186,0.0,2.0,92,0.00,,,0.00,0,WeatherCatV1.10B1570,2013-07-02 07:25:00,
2013-07-02 03:30:00,71.8,69.7,30.00,SSE,167,1.0,3.0,93,0.00,,,0.00,0,WeatherCatV1.10B1570,2013-07-02 07:30:00,
2013-07-02 03:35:00,71.7,69.6,30.00,South,191,1.0,2.0,93,0.00,,,0.00,0,WeatherCatV1.10B1570,2013-07-02 07:35:00,
2013-07-02 03:40:00,71.7,69.6,30.00,South,181,0.0,1.0,93,0.00,,,0.00,0,WeatherCatV1.10B1570,2013-07-02 07:40:00,
2013-07-02 03:45:00,71.6,69.5,30.00,South,181,0.0,2.0,93,0.00,,,0.00,0,WeatherCatV1.10B1570,2013-07-02 07:45:00,
2013-07-02 03:50:00,71.5,69.4,30.00,South,181,1.0,2.0,93,0.00,,,0.00,0,WeatherCatV1.10B1570,2013-07-02 07:50:00,
2013-07-02 03:55:00,71.5,69.4,30.00,South,181,0.0,2.0,93,0.00,,,0.00,0,WeatherCatV1.10B1570,2013-07-02 07:55:00,
2013-07-02 04:00:00,71.5,69.4,30.01,South,181,0.0,2.0,93,0.00,,,0.00,0,WeatherCatV1.10B1570,2013-07-02 08:00:00,
2013-07-02 04:05:00,71.5,69.4,30.01,South,181,1.0,3.0,93,0.00,,,0.00,0,WeatherCatV1.10B1570,2013-07-02 08:05:00,
2013-07-02 04:10:00,71.5,69.4,30.01,South,181,0.0,2.0,93,0.00,,,0.00,0,WeatherCatV1.10B1570,2013-07-02 08:10:00,
2013-07-02 04:15:00,71.6,69.5,30.01,South,181,1.0,2.0,93,0.00,,,0.00,0,WeatherCatV1.10B1570,2013-07-02 08:15:00,
2013-07-02 04:20:00,71.6,69.5,30.02,South,181,0.0,2.0,93,0.00,,,0.00,0,WeatherCatV1.10B1570,2013-07-02 08:20:00,
2013-07-02 04:25:00,71.7,69.2,30.02,South,181,0.0,2.0,92,0.00,,,0.00,0,WeatherCatV1.10B1570,2013-07-02 08:25:00,
2013-07-02 04:30:00,71.7,69.2,30.02,South,181,2.0,2.0,92,0.00,,,0.00,0,WeatherCatV1.10B1570,2013-07-02 08:30:00,
2013-07-02 04:35:00,71.8,69.3,30.02,South,181,0.0,3.0,92,0.00,,,0.00,0,WeatherCatV1.10B1570,2013-07-02 08:35:00,
2013-07-02 04:40:00,71.8,69.3,30.02,South,170,3.0,3.0,92,0.00,,,0.00,0,WeatherCatV1.10B1570,2013-07-02 08:40:00,
2013-07-02 04:45:00,71.9,69.4,30.02,South,177,1.0,3.0,92,0.00,,,0.00,0,WeatherCatV1.10B1570,2013-07-02 08:45:00,
2013-07-02 04:50:00,72.0,69.5,30.02,SSE,164,4.0,4.0,92,0.00,,,0.00,0,WeatherCatV1.10B1570,2013-07-02 08:50:00,
2013-07-02 04:55:00,72.0,69.5,30.03,South,179,1.0,2.0,92,0.00,,,0.00,0,WeatherCatV1.10B1570,2013-07-02 08:55:00,
2013-07-02 05:00:00,72.1,69.6,30.03,South,171,1.0,3.0,92,0.00,,,0.00,0,WeatherCatV1.10B1570,2013-07-02 09:00:00,
2013-07-02 05:05:00,72.1,69.6,30.03,South,171,2.0,2.0,92,0.00,,,0.00,0,WeatherCatV1.10B1570,2013-07-02 09:05:00,
2013-07-02 05:10:00,72.0,69.5,30.03,SSW,197,0.0,4.0,92,0.00,,,0.00,0,WeatherCatV1.10B1570,2013-07-02 09:10:00,
2013-07-02 05:15:00,72.0,69.5,30.03,SSE,159,2.0,3.0,92,0.00,,,0.00,0,WeatherCatV1.10B1570,2013-07-02 09:15:00,
2013-07-02 05:20:00,72.1,69.6,30.03,SSE,167,3.0,3.0,92,0.00,,,0.00,0,WeatherCatV1.10B1570,2013-07-02 09:20:00,
2013-07-02 05:25:00,72.1,69.6,30.03,ESE,119,1.0,3.0,92,0.00,,,0.00,0,WeatherCatV1.10B1570,2013-07-02 09:25:00,
2013-07-02 05:30:00,72.0,69.5,30.03,South,178,0.0,3.0,92,0.00,,,0.00,0,WeatherCatV1.10B1570,2013-07-02 09:30:00,
2013-07-02 05:35:00,72.0,69.5,30.04,South,178,2.0,2.0,92,0.00,,,0.00,0,WeatherCatV1.10B1570,2013-07-02 09:35:00,
2013-07-02 05:40:00,72.0,69.5,30.04,South,178,2.0,2.0,92,0.00,,,0.00,0,WeatherCatV1.10B1570,2013-07-02 09:40:00,
2013-07-02 05:45:00,71.9,69.4,30.04,South,182,2.0,3.0,92,0.00,,,0.00,0,WeatherCatV1.10B1570,2013-07-02 09:45:00,
2013-07-02 05:50:00,71.9,69.4,30.04,South,175,1.0,3.0,92,0.00,,,0.00,0,WeatherCatV1.10B1570,2013-07-02 09:50:00,
2013-07-02 05:55:00,72.0,69.2,30.04,South,171,2.0,2.0,91,0.00,,,0.00,0,WeatherCatV1.10B1570,2013-07-02 09:55:00,
2013-07-02 06:00:00,72.0,69.5,30.04,SSE,168,3.0,4.0,92,0.00,,,0.00,0,WeatherCatV1.10B1570,2013-07-02 10:00:00,
2013-07-02 06:05:00,72.1,69.6,30.04,SSE,168,2.0,3.0,92,0.00,,,0.00,0,WeatherCatV1.10B1570,2013-07-02 10:05:00,
2013-07-02 06:10:00,72.0,69.5,30.05,SSE,157,1.0,2.0,92,0.00,,,0.00,5,WeatherCatV1.10B1570,2013-07-02 10:10:00,
2013-07-02 06:15:00,72.0,69.5,30.05,SSE,158,1.0,2.0,92,0.00,,,0.00,12,WeatherCatV1.10B1570,2013-07-02 10:15:00,
2013-07-02 06:20:00,72.0,69.5,30.05,South,178,3.0,3.0,92,0.00,,,0.00,21,WeatherCatV1.10B1570,2013-07-02 10:20:00,
2013-07-02 06:25:00,72.0,69.5,30.05,South,173,3.0,3.0,92,0.00,,,0.00,28,WeatherCatV1.10B1570,2013-07-02 10:25:00,
2013-07-02 06:30:00,72.1,69.6,30.05,South,169,3.0,4.0,92,0.00,,,0.00,32,WeatherCatV1.10B1570,2013-07-02 10:30:00,
2013-07-02 06:35:00,72.2,69.7,30.05,South,170,1.0,3.0,92,0.00,,,0.00,32,WeatherCatV1.10B1570,2013-07-02 10:35:00,
2013-07-02 06:40:00,72.2,69.7,30.05,South,188,1.0,3.0,92,0.00,,,0.00,26,WeatherCatV1.10B1570,2013-07-02 10:40:00,
2013-07-02 06:45:00,72.2,69.7,30.05,South,179,2.0,2.0,92,0.00,,,0.00,21,WeatherCatV1.10B1570,2013-07-02 10:45:00,
2013-07-02 06:50:00,72.3,69.8,30.06,SSE,168,2.0,3.0,92,0.00,,,0.00,12,WeatherCatV1.10B1570,2013-07-02 10:50:00,
2013-07-02 06:55:00,72.3,69.8,30.06,South,182,2.0,2.0,92,0.00,,,0.00,12,WeatherCatV1.10B1570,2013-07-02 10:55:00,
2013-07-02 07:00:00,72.4,69.9,30.06,SSE,166,2.0,3.0,92,0.00,,,0.00,14,WeatherCatV1.10B1570,2013-07-02 11:00:00,
2013-07-02 07:05:00,72.4,69.9,30.06,SSE,166,2.0,2.0,92,0.00,,,0.00,21,WeatherCatV1.10B1570,2013-07-02 11:05:00,
2013-07-02 07:10:00,72.3,69.8,30.06,SSE,166,1.0,2.0,92,0.00,,,0.00,30,WeatherCatV1.10B1570,2013-07-02 11:10:00,
2013-07-02 07:15:00,72.4,69.9,30.06,South,180,0.0,2.0,92,0.00,,,0.00,35,WeatherCatV1.10B1570,2013-07-02 11:15:00,
2013-07-02 07:20:00,72.4,69.9,30.06,South,176,1.0,2.0,92,0.00,,,0.00,33,WeatherCatV1.10B1570,2013-07-02 11:20:00,
2013-07-02 07:25:00,72.4,69.9,30.06,South,176,0.0,2.0,92,0.00,,,0.00,30,WeatherCatV1.10B1570,2013-07-02 11:25:00,
2013-07-02 07:30:00,72.4,69.9,30.06,South,173,1.0,2.0,92,0.00,,,0.00,21,WeatherCatV1.10B1570,2013-07-02 11:30:00,
2013-07-02 07:35:00,72.4,69.9,30.07,South,173,1.0,2.0,92,0.00,,,0.00,33,WeatherCatV1.10B1570,2013-07-02 11:35:00,
2013-07-02 07:40:00,72.5,70.0,30.07,South,173,1.0,2.0,92,0.00,,,0.00,33,WeatherCatV1.10B1570,2013-07-02 11:40:00,
2013-07-02 07:45:00,72.6,70.1,30.07,SSE,159,2.0,2.0,92,0.00,,,0.00,42,WeatherCatV1.10B1570,2013-07-02 11:45:00,
2013-07-02 07:50:00,72.6,70.1,30.07,South,177,2.0,5.0,92,0.00,,,0.00,35,WeatherCatV1.10B1570,2013-07-02 11:50:00,
2013-07-02 07:55:00,72.7,70.2,30.07,SSW,193,0.0,2.0,92,0.00,,,0.00,39,WeatherCatV1.10B1570,2013-07-02 11:55:00,
2013-07-02 08:01:00,72.7,70.2,30.08,SSE,164,0.0,3.0,92,0.00,,,0.00,40,WeatherCatV1.10B1570,2013-07-02 12:01:00,
2013-07-02 08:06:00,72.8,70.3,30.08,SSE,166,3.0,3.0,92,0.00,,,0.00,47,WeatherCatV1.10B1570,2013-07-02 12:06:00,
2013-07-02 08:11:00,72.9,70.4,30.08,South,178,1.0,3.0,92,0.00,,,0.00,39,WeatherCatV1.10B1570,2013-07-02 12:11:00,
2013-07-02 08:16:00,72.9,70.1,30.08,SSE,155,1.0,3.0,91,0.00,,,0.00,49,WeatherCatV1.10B1570,2013-07-02 12:16:00,
2013-07-02 08:21:00,73.0,70.2,30.08,South,181,1.0,2.0,91,0.00,,,0.00,44,WeatherCatV1.10B1570,2013-07-02 12:21:00,
2013-07-02 08:26:00,72.9,70.1,30.09,SSW,193,1.0,3.0,91,0.00,,,0.00,46,WeatherCatV1.10B1570,2013-07-02 12:26:00,
2013-07-02 08:31:00,72.8,70.0,30.09,SSE,157,0.0,4.0,91,0.00,,,0.00,49,WeatherCatV1.10B1570,2013-07-02 12:31:00,
2013-07-02 08:36:00,72.7,69.9,30.09,South,178,2.0,3.0,91,0.00,,,0.00,56,WeatherCatV1.10B1570,2013-07-02 12:36:00,
2013-07-02 08:41:00,72.6,69.8,30.09,South,179,2.0,3.0,91,0.00,,,0.00,70,WeatherCatV1.10B1570,2013-07-02 12:41:00,
2013-07-02 08:46:00,72.5,69.7,30.09,South,180,3.0,3.0,91,0.00,,,0.00,77,WeatherCatV1.10B1570,2013-07-02 12:46:00,
2013-07-02 08:51:00,72.5,69.7,30.09,South,174,1.0,2.0,91,0.00,,,0.00,79,WeatherCatV1.10B1570,2013-07-02 12:51:00,
2013-07-02 08:56:00,72.4,69.9,30.09,SE,145,2.0,3.0,92,0.00,,,0.00,93,WeatherCatV1.10B1570,2013-07-02 12:56:00,
2013-07-02 09:01:00,72.3,70.2,30.10,SSE,149,1.0,2.0,93,0.00,,,0.00,104,WeatherCatV1.10B1570,2013-07-02 13:01:00,
2013-07-02 09:06:00,72.3,70.2,30.10,SSE,153,0.0,2.0,93,0.00,,,0.00,98,WeatherCatV1.10B1570,2013-07-02 13:06:00,
2013-07-02 09:11:00,72.4,70.3,30.10,SSE,154,1.0,2.0,93,0.00,,,0.00,128,WeatherCatV1.10B1570,2013-07-02 13:11:00,
2013-07-02 09:16:00,72.4,69.9,30.10,SSE,156,1.0,3.0,92,0.00,,,0.00,135,WeatherCatV1.10B1570,2013-07-02 13:16:00,
2013-07-02 09:21:00,72.4,69.9,30.10,South,188,2.0,3.0,92,0.00,,,0.00,97,WeatherCatV1.10B1570,2013-07-02 13:21:00,
2013-07-02 09:26:00,72.4,69.9,30.10,South,172,0.0,2.0,92,0.00,,,0.00,65,WeatherCatV1.10B1570,2013-07-02 13:26:00,
2013-07-02 09:31:00,72.3,70.2,30.10,South,172,0.0,1.0,93,0.00,,,0.01,54,WeatherCatV1.10B1570,2013-07-02 13:31:00,
2013-07-02 09:36:00,72.1,70.3,30.10,South,172,0.0,2.0,94,0.00,,,0.01,60,WeatherCatV1.10B1570,2013-07-02 13:36:00,
2013-07-02 09:41:00,71.8,70.0,30.10,South,172,1.0,2.0,94,0.09,,,0.02,42,WeatherCatV1.10B1570,2013-07-02 13:41:00,
2013-07-02 09:46:00,71.6,70.1,30.10,South,172,0.0,1.0,95,0.08,,,0.03,33,WeatherCatV1.10B1570,2013-07-02 13:46:00,
2013-07-02 09:51:00,71.5,70.0,30.10,South,172,0.0,0.0,95,0.08,,,0.03,32,WeatherCatV1.10B1570,2013-07-02 13:51:00,
2013-07-02 09:56:00,71.3,70.1,30.10,South,172,0.0,0.0,96,0.07,,,0.04,26,WeatherCatV1.10B1570,2013-07-02 13:56:00,
2013-07-02 10:01:00,71.2,70.0,30.10,South,172,0.0,1.0,96,0.11,,,0.05,44,WeatherCatV1.10B1570,2013-07-02 14:01:00,
2013-07-02 10:06:00,71.2,70.3,30.10,South,172,0.0,1.0,97,0.10,,,0.06,47,WeatherCatV1.10B1570,2013-07-02 14:06:00,
2013-07-02 10:11:00,71.1,70.2,30.10,South,172,0.0,0.0,97,0.16,,,0.07,56,WeatherCatV1.10B1570,2013-07-02 14:11:00,
2013-07-02 10:16:00,71.1,70.2,30.10,South,172,0.0,0.0,97,0.08,,,0.07,79,WeatherCatV1.10B1570,2013-07-02 14:16:00,
2013-07-02 10:21:00,71.1,70.2,30.10,South,172,0.0,0.0,97,0.07,,,0.08,97,WeatherCatV1.10B1570,2013-07-02 14:21:00,
2013-07-02 10:26:00,71.2,70.3,30.10,South,172,0.0,0.0,97,0.06,,,0.08,105,WeatherCatV1.10B1570,2013-07-02 14:26:00,
2013-07-02 10:31:00,71.2,70.3,30.10,South,172,0.0,0.0,97,0.04,,,0.08,107,WeatherCatV1.10B1570,2013-07-02 14:31:00,
2013-07-02 10:36:00,71.3,70.4,30.10,South,172,0.0,0.0,97,0.00,,,0.09,156,WeatherCatV1.10B1570,2013-07-02 14:36:00,
2013-07-02 10:41:00,71.4,70.5,30.10,South,172,0.0,0.0,97,0.00,,,0.09,128,WeatherCatV1.10B1570,2013-07-02 14:41:00,
2013-07-02 10:46:00,71.5,70.6,30.10,South,172,0.0,0.0,97,0.00,,,0.09,163,WeatherCatV1.10B1570,2013-07-02 14:46:00,
2013-07-02 10:51:00,71.7,70.8,30.10,South,172,0.0,0.0,97,0.00,,,0.09,218,WeatherCatV1.10B1570,2013-07-02 14:51:00,
2013-07-02 10:56:00,72.0,71.1,30.10,NNE,23,2.0,2.0,97,0.00,,,0.09,142,WeatherCatV1.10B1570,2013-07-02 14:56:00,
2013-07-02 11:01:00,72.1,71.2,30.11,SE,126,0.0,1.0,97,0.00,,,0.09,225,WeatherCatV1.10B1570,2013-07-02 15:01:00,
2013-07-02 11:06:00,72.2,71.3,30.11,SE,126,0.0,0.0,97,0.00,,,0.09,341,WeatherCatV1.10B1570,2013-07-02 15:06:00,
2013-07-02 11:11:00,72.6,71.7,30.11,SSW,201,0.0,3.0,97,0.00,,,0.09,394,WeatherCatV1.10B1570,2013-07-02 15:11:00,
2013-07-02 11:16:00,72.8,71.6,30.11,SSE,166,2.0,4.0,96,0.00,,,0.09,309,WeatherCatV1.10B1570,2013-07-02 15:16:00,
2013-07-02 11:21:00,72.9,71.7,30.11,South,176,1.0,2.0,96,0.00,,,0.09,478,WeatherCatV1.10B1570,2013-07-02 15:21:00,
2013-07-02 11:26:00,73.4,72.2,30.11,South,180,1.0,2.0,96,0.00,,,0.09,566,WeatherCatV1.10B1570,2013-07-02 15:26:00,
2013-07-02 11:31:00,73.5,72.0,30.11,SW,220,0.0,2.0,95,0.00,,,0.09,450,WeatherCatV1.10B1570,2013-07-02 15:31:00,
2013-07-02 11:36:00,73.7,72.2,30.11,SSE,149,2.0,4.0,95,0.00,,,0.09,476,WeatherCatV1.10B1570,2013-07-02 15:36:00,
2013-07-02 11:41:00,73.7,71.9,30.11,South,182,1.0,2.0,94,0.00,,,0.09,424,WeatherCatV1.10B1570,2013-07-02 15:41:00,
2013-07-02 11:46:00,73.2,71.4,30.11,South,178,1.0,2.0,94,0.00,,,0.09,214,WeatherCatV1.10B1570,2013-07-02 15:46:00,
2013-07-02 11:51:00,73.1,71.9,30.12,South,178,0.0,0.0,96,0.00,,,0.09,172,WeatherCatV1.10B1570,2013-07-02 15:51:00,
2013-07-02 11:56:00,73.1,71.6,30.12,South,186,1.0,3.0,95,0.00,,,0.09,278,WeatherCatV1.10B1570,2013-07-02 15:56:00,
2013-07-02 12:01:00,73.0,71.5,30.12,SSW,195,0.0,2.0,95,0.00,,,0.09,369,WeatherCatV1.10B1570,2013-07-02 16:01:00,
2013-07-02 12:06:00,73.2,71.4,30.12,SSW,200,0.0,2.0,94,0.00,,,0.09,325,WeatherCatV1.10B1570,2013-07-02 16:06:00,
2013-07-02 12:11:00,73.3,71.8,30.12,SE,144,0.0,3.0,95,0.00,,,0.09,229,WeatherCatV1.10B1570,2013-07-02 16:11:00,
2013-07-02 12:16:00,73.3,71.8,30.12,SSE,149,1.0,2.0,95,0.00,,,0.09,237,WeatherCatV1.10B1570,2013-07-02 16:16:00,
2013-07-02 12:21:00,73.3,71.8,30.12,South,177,0.0,2.0,95,0.00,,,0.09,265,WeatherCatV1.10B1570,2013-07-02 16:21:00,
2013-07-02 12:26:00,73.2,71.7,30.12,South,176,0.0,3.0,95,0.00,,,0.09,260,WeatherCatV1.10B1570,2013-07-02 16:26:00,
2013-07-02 12:31:00,73.1,71.6,30.12,South,176,1.0,2.0,95,0.00,,,0.09,308,WeatherCatV1.10B1570,2013-07-02 16:31:00,
2013-07-02 12:36:00,73.3,71.8,30.13,South,176,2.0,2.0,95,0.00,,,0.09,276,WeatherCatV1.10B1570,2013-07-02 16:36:00,
2013-07-02 12:41:00,73.3,71.8,30.12,South,181,1.0,3.0,95,0.00,,,0.09,309,WeatherCatV1.10B1570,2013-07-02 16:41:00,
2013-07-02 12:46:00,73.2,71.4,30.12,South,181,0.0,2.0,94,0.00,,,0.09,316,WeatherCatV1.10B1570,2013-07-02 16:46:00,
2013-07-02 12:51:00,73.4,71.6,30.12,SSE,168,0.0,3.0,94,0.00,,,0.09,320,WeatherCatV1.10B1570,2013-07-02 16:51:00,
2013-07-02 12:56:00,73.4,71.6,30.12,SSE,168,0.0,1.0,94,0.00,,,0.09,352,WeatherCatV1.10B1570,2013-07-02 16:56:00,
2013-07-02 13:01:00,73.7,72.2,30.12,SSE,168,0.0,2.0,95,0.00,,,0.09,304,WeatherCatV1.10B1570,2013-07-02 17:01:00,
2013-07-02 13:06:00,73.7,72.2,30.12,SSE,168,0.0,2.0,95,0.00,,,0.09,295,WeatherCatV1.10B1570,2013-07-02 17:06:00,
2013-07-02 13:11:00,73.5,71.7,30.12,South,191,0.0,1.0,94,0.00,,,0.09,431,WeatherCatV1.10B1570,2013-07-02 17:11:00,
2013-07-02 13:16:00,73.7,71.9,30.12,SSE,156,2.0,3.0,94,0.00,,,0.09,436,WeatherCatV1.10B1570,2013-07-02 17:16:00,
2013-07-02 13:21:00,74.0,72.2,30.12,South,180,2.0,2.0,94,0.00,,,0.09,520,WeatherCatV1.10B1570,2013-07-02 17:21:00,
2013-07-02 13:26:00,74.2,72.0,30.12,South,181,1.0,2.0,93,0.00,,,0.09,594,WeatherCatV1.10B1570,2013-07-02 17:26:00,
2013-07-02 13:31:00,74.5,72.7,30.12,South,181,1.0,1.0,94,0.00,,,0.09,352,WeatherCatV1.10B1570,2013-07-02 17:31:00,
2013-07-02 13:36:00,74.9,73.1,30.12,SSE,148,0.0,3.0,94,0.00,,,0.09,339,WeatherCatV1.10B1570,2013-07-02 17:36:00,
2013-07-02 13:41:00,75.0,72.5,30.12,SSE,161,2.0,3.0,92,0.00,,,0.09,334,WeatherCatV1.10B1570,2013-07-02 17:41:00,
2013-07-02 13:46:00,74.9,72.7,30.12,SSE,164,0.0,2.0,93,0.00,,,0.10,439,WeatherCatV1.10B1570,2013-07-02 17:46:00,
2013-07-02 13:51:00,74.9,72.1,30.12,South,176,0.0,3.0,91,0.00,,,0.10,373,WeatherCatV1.10B1570,2013-07-02 17:51:00,
2013-07-02 13:56:00,74.9,72.1,30.12,South,176,0.0,2.0,91,0.00,,,0.10,334,WeatherCatV1.10B1570,2013-07-02 17:56:00,
2013-07-02 14:01:00,75.0,71.9,30.12,South,188,1.0,3.0,90,0.00,,,0.10,283,WeatherCatV1.10B1570,2013-07-02 18:01:00,
2013-07-02 14:06:00,74.9,71.8,30.11,South,173,1.0,5.0,90,0.00,,,0.10,378,WeatherCatV1.10B1570,2013-07-02 18:06:00,
2013-07-02 14:11:00,75.1,72.0,30.12,SSE,150,2.0,3.0,90,0.00,,,0.10,457,WeatherCatV1.10B1570,2013-07-02 18:11:00,
2013-07-02 14:16:00,75.6,72.4,30.11,South,191,1.0,3.0,90,0.00,,,0.10,566,WeatherCatV1.10B1570,2013-07-02 18:16:00,
2013-07-02 14:21:00,75.9,72.1,30.11,SSE,168,1.0,2.0,88,0.00,,,0.10,529,WeatherCatV1.10B1570,2013-07-02 18:21:00,
2013-07-02 14:26:00,76.2,72.4,30.12,South,169,0.0,2.0,88,0.00,,,0.10,527,WeatherCatV1.10B1570,2013-07-02 18:26:00,
2013-07-02 14:31:00,76.7,72.2,30.12,SSW,194,2.0,5.0,86,0.00,,,0.10,285,WeatherCatV1.10B1570,2013-07-02 18:31:00,
2013-07-02 14:36:00,76.2,72.7,30.12,SSE,159,0.0,3.0,89,0.00,,,0.10,345,WeatherCatV1.10B1570,2013-07-02 18:36:00,
2013-07-02 14:41:00,76.3,72.1,30.12,South,182,1.0,3.0,87,0.00,,,0.10,241,WeatherCatV1.10B1570,2013-07-02 18:41:00,
2013-07-02 14:46:00,76.3,73.1,30.13,SSE,157,2.0,2.0,90,0.00,,,0.10,274,WeatherCatV1.10B1570,2013-07-02 18:46:00,
2013-07-02 14:51:00,76.2,72.4,30.13,South,175,1.0,3.0,88,0.00,,,0.10,227,WeatherCatV1.10B1570,2013-07-02 18:51:00,
2013-07-02 14:56:00,75.9,72.1,30.13,SSE,149,1.0,3.0,88,0.00,,,0.10,197,WeatherCatV1.10B1570,2013-07-02 18:56:00,
2013-07-02 15:01:00,75.8,72.0,30.13,SSE,164,1.0,1.0,88,0.00,,,0.10,192,WeatherCatV1.10B1570,2013-07-02 19:01:00,
2013-07-02 15:06:00,75.7,71.9,30.13,SSE,166,0.0,2.0,88,0.00,,,0.10,183,WeatherCatV1.10B1570,2013-07-02 19:06:00,
2013-07-02 15:11:00,75.6,72.4,30.13,SSE,166,2.0,2.0,90,0.00,,,0.10,192,WeatherCatV1.10B1570,2013-07-02 19:11:00,
2013-07-02 15:16:00,75.6,71.8,30.13,SSE,166,0.0,2.0,88,0.00,,,0.10,186,WeatherCatV1.10B1570,2013-07-02 19:16:00,
2013-07-02 15:21:00,75.7,72.2,30.13,SSE,156,0.0,1.0,89,0.00,,,0.10,160,WeatherCatV1.10B1570,2013-07-02 19:21:00,
2013-07-02 15:26:00,75.8,72.3,30.13,SSW,197,1.0,2.0,89,0.00,,,0.10,172,WeatherCatV1.10B1570,2013-07-02 19:26:00,
2013-07-02 15:31:00,75.7,71.9,30.13,SSW,195,1.0,2.0,88,0.00,,,0.10,172,WeatherCatV1.10B1570,2013-07-02 19:31:00,
2013-07-02 15:36:00,75.8,72.6,30.13,SSW,195,1.0,2.0,90,0.00,,,0.10,272,WeatherCatV1.10B1570,2013-07-02 19:36:00,
2013-07-02 15:41:00,76.0,71.8,30.12,South,173,0.0,3.0,87,0.00,,,0.10,285,WeatherCatV1.10B1570,2013-07-02 19:41:00,
2013-07-02 15:46:00,76.0,71.8,30.12,SSE,152,1.0,3.0,87,0.00,,,0.10,192,WeatherCatV1.10B1570,2013-07-02 19:46:00,
2013-07-02 15:51:00,75.8,71.6,30.12,SE,142,2.0,3.0,87,0.00,,,0.10,236,WeatherCatV1.10B1570,2013-07-02 19:51:00,
2013-07-02 15:56:00,76.0,71.8,30.12,South,169,1.0,4.0,87,0.00,,,0.10,330,WeatherCatV1.10B1570,2013-07-02 19:56:00,
2013-07-02 16:03:00,76.2,71.3,30.12,ESE,117,2.0,2.0,85,0.00,,,0.10,316,WeatherCatV1.10B1570,2013-07-02 20:03:00,
2013-07-02 16:08:00,76.2,71.7,30.12,SSE,164,2.0,3.0,86,0.00,,,0.10,264,WeatherCatV1.10B1570,2013-07-02 20:08:00,
2013-07-02 16:13:00,76.3,71.8,30.12,SSE,168,1.0,2.0,86,0.00,,,0.10,53,WeatherCatV1.10B1570,2013-07-02 20:13:00,
2013-07-02 16:18:00,75.7,71.5,30.13,SSE,154,3.0,4.0,87,1.64,,,0.13,23,WeatherCatV1.10B1570,2013-07-02 20:18:00,
2013-07-02 16:23:00,74.0,71.5,30.13,South,185,1.0,5.0,92,0.30,,,0.17,58,WeatherCatV1.10B1570,2013-07-02 20:23:00,
2013-07-02 16:28:00,72.7,70.6,30.13,SE,124,0.0,4.0,93,0.34,,,0.19,67,WeatherCatV1.10B1570,2013-07-02 20:28:00,
2013-07-02 16:33:00,71.9,70.4,30.12,SE,132,4.0,4.0,95,0.17,,,0.21,86,WeatherCatV1.10B1570,2013-07-02 20:33:00,
2013-07-02 16:38:00,71.7,70.5,30.12,SSE,154,0.0,3.0,96,0.07,,,0.21,104,WeatherCatV1.10B1570,2013-07-02 20:38:00,
2013-07-02 16:43:00,71.6,70.4,30.12,SSE,155,1.0,2.0,96,0.04,,,0.21,123,WeatherCatV1.10B1570,2013-07-02 20:43:00,
2013-07-02 16:48:00,71.6,70.4,30.12,SE,143,1.0,2.0,96,0.00,,,0.21,118,WeatherCatV1.10B1570,2013-07-02 20:48:00,
2013-07-02 16:53:00,71.6,70.4,30.12,SSE,152,2.0,3.0,96,0.00,,,0.21,135,WeatherCatV1.10B1570,2013-07-02 20:53:00,
2013-07-02 16:58:00,71.7,70.5,30.12,SSE,152,0.0,2.0,96,0.00,,,0.21,128,WeatherCatV1.10B1570,2013-07-02 20:58:00,
2013-07-02 17:03:00,71.8,70.9,30.11,ESE,102,1.0,3.0,97,0.00,,,0.21,135,WeatherCatV1.10B1570,2013-07-02 21:03:00,
2013-07-02 17:08:00,71.8,70.6,30.11,South,176,2.0,3.0,96,0.00,,,0.21,142,WeatherCatV1.10B1570,2013-07-02 21:08:00,
2013-07-02 17:13:00,71.8,70.6,30.11,South,176,0.0,2.0,96,0.00,,,0.21,146,WeatherCatV1.10B1570,2013-07-02 21:13:00,
2013-07-02 17:18:00,72.0,71.1,30.11,South,176,1.0,2.0,97,0.00,,,0.21,142,WeatherCatV1.10B1570,2013-07-02 21:18:00,
2013-07-02 17:23:00,72.0,70.8,30.11,South,176,1.0,2.0,96,0.00,,,0.21,142,WeatherCatV1.10B1570,2013-07-02 21:23:00,
2013-07-02 17:28:00,72.1,70.9,30.12,SSE,147,1.0,3.0,96,0.00,,,0.21,127,WeatherCatV1.10B1570,2013-07-02 21:28:00,
2013-07-02 17:33:00,72.2,71.0,30.12,ESE,116,2.0,2.0,96,0.00,,,0.21,113,WeatherCatV1.10B1570,2013-07-02 21:33:00,
2013-07-02 17:38:00,72.2,71.0,30.12,SSW,197,1.0,3.0,96,0.00,,,0.21,105,WeatherCatV1.10B1570,2013-07-02 21:38:00,
2013-07-02 17:43:00,72.1,70.9,30.12,South,178,1.0,3.0,96,0.00,,,0.21,105,WeatherCatV1.10B1570,2013-07-02 21:43:00,
2013-07-02 17:48:00,72.1,70.6,30.12,South,188,1.0,2.0,95,0.00,,,0.21,107,WeatherCatV1.10B1570,2013-07-02 21:48:00,
2013-07-02 17:53:00,72.1,70.9,30.13,South,184,0.0,2.0,96,0.00,,,0.21,105,WeatherCatV1.10B1570,2013-07-02 21:53:00,
2013-07-02 17:58:00,72.2,70.7,30.12,South,184,1.0,1.0,95,0.00,,,0.21,67,WeatherCatV1.10B1570,2013-07-02 21:58:00,
2013-07-02 18:03:00,72.2,70.7,30.12,South,184,0.0,2.0,95,0.00,,,0.21,116,WeatherCatV1.10B1570,2013-07-02 22:03:00,
2013-07-02 18:08:00,72.3,71.1,30.13,South,184,0.0,2.0,96,0.00,,,0.21,113,WeatherCatV1.10B1570,2013-07-02 22:08:00,
2013-07-02 18:13:00,72.4,70.9,30.13,South,170,3.0,3.0,95,0.00,,,0.21,79,WeatherCatV1.10B1570,2013-07-02 22:13:00,
2013-07-02 18:18:00,72.4,70.9,30.13,South,176,1.0,3.0,95,0.00,,,0.21,77,WeatherCatV1.10B1570,2013-07-02 22:18:00,
2013-07-02 18:23:00,72.4,70.9,30.13,SSE,166,3.0,3.0,95,0.00,,,0.21,118,WeatherCatV1.10B1570,2013-07-02 22:23:00,
2013-07-02 18:28:00,72.6,71.1,30.13,North,3,1.0,3.0,95,0.00,,,0.21,109,WeatherCatV1.10B1570,2013-07-02 22:28:00,
2013-07-02 18:33:00,72.5,70.7,30.13,South,171,3.0,3.0,94,0.00,,,0.21,104,WeatherCatV1.10B1570,2013-07-02 22:33:00,
2013-07-02 18:38:00,72.5,70.7,30.13,SSE,157,2.0,2.0,94,0.00,,,0.21,113,WeatherCatV1.10B1570,2013-07-02 22:38:00,
2013-07-02 18:43:00,72.4,70.6,30.13,SSE,159,1.0,3.0,94,0.00,,,0.21,100,WeatherCatV1.10B1570,2013-07-02 22:43:00,
2013-07-02 18:48:00,72.4,70.3,30.14,South,180,0.0,3.0,93,0.00,,,0.21,83,WeatherCatV1.10B1570,2013-07-02 22:48:00,
2013-07-02 18:53:00,72.5,70.4,30.14,North,349,1.0,3.0,93,0.00,,,0.21,74,WeatherCatV1.10B1570,2013-07-02 22:53:00,
2013-07-02 18:58:00,72.4,70.3,30.14,SSE,163,0.0,3.0,93,0.00,,,0.21,67,WeatherCatV1.10B1570,2013-07-02 22:58:00,
2013-07-02 19:03:00,72.3,70.5,30.14,NNW,342,4.0,5.0,94,0.00,,,0.21,63,WeatherCatV1.10B1570,2013-07-02 23:03:00,
2013-07-02 19:08:00,72.3,70.2,30.14,SSE,160,0.0,3.0,93,0.00,,,0.21,58,WeatherCatV1.10B1570,2013-07-02 23:08:00,
2013-07-02 19:13:00,72.3,70.5,30.15,South,170,3.0,3.0,94,0.00,,,0.21,40,WeatherCatV1.10B1570,2013-07-02 23:13:00,
2013-07-02 19:18:00,72.2,70.4,30.15,SSE,161,2.0,3.0,94,0.00,,,0.21,54,WeatherCatV1.10B1570,2013-07-02 23:18:00,
2013-07-02 19:23:00,72.2,70.4,30.15,SE,127,1.0,3.0,94,0.00,,,0.21,63,WeatherCatV1.10B1570,2013-07-02 23:23:00,
2013-07-02 19:28:00,72.2,70.4,30.15,SSE,154,1.0,2.0,94,0.00,,,0.21,60,WeatherCatV1.10B1570,2013-07-02 23:28:00,
2013-07-02 19:33:00,72.2,70.4,30.15,SSE,159,0.0,1.0,94,0.00,,,0.21,49,WeatherCatV1.10B1570,2013-07-02 23:33:00,
2013-07-02 19:38:00,72.1,70.3,30.15,SSE,159,1.0,2.0,94,0.00,,,0.21,44,WeatherCatV1.10B1570,2013-07-02 23:38:00,
2013-07-02 19:43:00,72.1,70.3,30.15,SSE,159,1.0,2.0,94,0.00,,,0.21,46,WeatherCatV1.10B1570,2013-07-02 23:43:00,
2013-07-02 19:48:00,72.2,70.4,30.15,SSE,159,0.0,2.0,94,0.00,,,0.21,37,WeatherCatV1.10B1570,2013-07-02 23:48:00,
2013-07-02 19:53:00,72.1,70.3,30.15,South,171,1.0,3.0,94,0.00,,,0.21,32,WeatherCatV1.10B1570,2013-07-02 23:53:00,
2013-07-02 19:58:00,72.1,70.6,30.15,South,171,1.0,2.0,95,0.00,,,0.21,26,WeatherCatV1.10B1570,2013-07-02 23:58:00,
2013-07-02 20:03:00,72.1,70.6,30.15,South,171,1.0,1.0,95,0.00,,,0.21,25,WeatherCatV1.10B1570,2013-07-03 00:03:00,
2013-07-02 20:08:00,72.1,70.6,30.15,SW,220,1.0,2.0,95,0.00,,,0.21,25,WeatherCatV1.10B1570,2013-07-03 00:08:00,
2013-07-02 20:13:00,72.0,70.5,30.16,SSE,161,3.0,3.0,95,0.00,,,0.21,21,WeatherCatV1.10B1570,2013-07-03 00:13:00,
2013-07-02 20:18:00,72.1,70.6,30.16,SSE,168,0.0,1.0,95,0.00,,,0.21,19,WeatherCatV1.10B1570,2013-07-03 00:18:00,
2013-07-02 20:23:00,72.1,70.6,30.16,SSE,168,2.0,2.0,95,0.00,,,0.21,18,WeatherCatV1.10B1570,2013-07-03 00:23:00,
2013-07-02 20:28:00,72.1,70.6,30.16,SSE,151,1.0,2.0,95,0.00,,,0.21,11,WeatherCatV1.10B1570,2013-07-03 00:28:00,
2013-07-02 20:32:00,72.1,70.6,30.16,SSE,151,1.0,2.0,95,0.00,,,0.21,7,WeatherCatV1.10B1570,2013-07-03 00:32:00,
2013-07-02 20:37:00,72.1,70.6,30.16,SSE,151,1.0,2.0,95,0.00,,,0.21,5,WeatherCatV1.10B1570,2013-07-03 00:37:00,
2013-07-02 20:42:00,72.1,70.6,30.16,East,100,0.0,2.0,95,0.00,,,0.21,0,WeatherCatV1.10B1570,2013-07-03 00:42:00,
2013-07-02 20:47:00,72.0,70.5,30.16,SE,146,0.0,2.0,95,0.00,,,0.21,0,WeatherCatV1.10B1570,2013-07-03 00:47:00,
2013-07-02 20:52:00,71.9,70.4,30.16,SE,140,1.0,2.0,95,0.00,,,0.21,0,WeatherCatV1.10B1570,2013-07-03 00:52:00,
2013-07-02 20:57:00,72.0,70.5,30.16,SE,140,0.0,2.0,95,0.00,,,0.21,0,WeatherCatV1.10B1570,2013-07-03 00:57:00,
2013-07-02 21:02:00,71.9,70.4,30.17,SE,140,1.0,2.0,95,0.00,,,0.21,0,WeatherCatV1.10B1570,2013-07-03 01:02:00,
2013-07-02 21:07:00,71.9,70.4,30.17,SE,140,2.0,2.0,95,0.00,,,0.21,0,WeatherCatV1.10B1570,2013-07-03 01:07:00,
2013-07-02 21:12:00,71.9,70.4,30.17,SE,140,0.0,2.0,95,0.00,,,0.21,0,WeatherCatV1.10B1570,2013-07-03 01:12:00,
2013-07-02 21:17:00,71.9,70.4,30.17,SE,140,0.0,1.0,95,0.00,,,0.21,0,WeatherCatV1.10B1570,2013-07-03 01:17:00,
2013-07-02 21:22:00,71.8,70.6,30.17,SE,140,0.0,1.0,96,0.00,,,0.21,0,WeatherCatV1.10B1570,2013-07-03 01:22:00,
2013-07-02 21:27:00,71.7,70.5,30.17,SE,140,1.0,1.0,96,0.00,,,0.21,0,WeatherCatV1.10B1570,2013-07-03 01:27:00,
2013-07-02 21:32:00,71.7,70.5,30.17,SE,140,1.0,2.0,96,0.00,,,0.21,0,WeatherCatV1.10B1570,2013-07-03 01:32:00,
2013-07-02 21:37:00,71.8,70.6,30.17,SE,140,0.0,1.0,96,0.00,,,0.21,0,WeatherCatV1.10B1570,2013-07-03 01:37:00,
2013-07-02 21:42:00,71.8,70.6,30.17,SE,140,0.0,1.0,96,0.00,,,0.21,0,WeatherCatV1.10B1570,2013-07-03 01:42:00,
2013-07-02 21:47:00,71.7,70.5,30.18,SE,140,0.0,0.0,96,0.00,,,0.21,0,WeatherCatV1.10B1570,2013-07-03 01:47:00,
2013-07-02 21:52:00,71.7,70.5,30.18,SE,140,0.0,1.0,96,0.00,,,0.21,0,WeatherCatV1.10B1570,2013-07-03 01:52:00,
2013-07-02 21:57:00,71.7,70.8,30.18,SE,140,0.0,0.0,97,0.00,,,0.22,0,WeatherCatV1.10B1570,2013-07-03 01:57:00,
2013-07-02 22:02:00,71.6,70.7,30.18,SE,137,0.0,2.0,97,0.00,,,0.22,0,WeatherCatV1.10B1570,2013-07-03 02:02:00,
2013-07-02 22:07:00,71.4,70.5,30.19,SE,137,4.0,4.0,97,0.91,,,0.27,0,WeatherCatV1.10B1570,2013-07-03 02:07:00,
2013-07-02 22:12:00,70.9,69.7,30.19,SSE,158,1.0,3.0,96,0.47,,,0.31,0,WeatherCatV1.10B1570,2013-07-03 02:12:00,
2013-07-02 22:17:00,70.6,69.7,30.19,South,170,2.0,3.0,97,0.37,,,0.34,0,WeatherCatV1.10B1570,2013-07-03 02:17:00,
2013-07-02 22:22:00,70.2,69.3,30.19,South,170,1.0,3.0,97,0.12,,,0.35,0,WeatherCatV1.10B1570,2013-07-03 02:22:00,
2013-07-02 22:27:00,70.1,69.2,30.19,SSW,206,0.0,0.0,97,0.06,,,0.35,0,WeatherCatV1.10B1570,2013-07-03 02:27:00,
2013-07-02 22:31:00,70.1,69.2,30.19,SSW,206,0.0,0.0,97,0.04,,,0.35,0,WeatherCatV1.10B1570,2013-07-03 02:31:00,
2013-07-02 22:36:00,70.1,69.2,30.19,SSW,206,0.0,1.0,97,0.04,,,0.36,0,WeatherCatV1.10B1570,2013-07-03 02:36:00,
2013-07-02 22:41:00,70.1,69.2,30.19,SSW,206,0.0,0.0,97,0.04,,,0.36,0,WeatherCatV1.10B1570,2013-07-03 02:41:00,
2013-07-02 22:46:00,70.1,69.2,30.19,SSW,206,0.0,0.0,97,0.04,,,0.36,0,WeatherCatV1.10B1570,2013-07-03 02:46:00,
2013-07-02 22:51:00,70.2,69.3,30.19,SSW,206,0.0,0.0,97,0.00,,,0.36,0,WeatherCatV1.10B1570,2013-07-03 02:51:00,
2013-07-02 22:56:00,70.1,69.2,30.19,SSW,206,0.0,0.0,97,0.00,,,0.36,0,WeatherCatV1.10B1570,2013-07-03 02:56:00,
2013-07-02 23:01:00,70.1,69.5,30.19,SSW,206,0.0,0.0,98,0.00,,,0.36,0,WeatherCatV1.10B1570,2013-07-03 03:01:00,
2013-07-02 23:06:00,70.1,69.5,30.19,SSW,206,0.0,0.0,98,0.00,,,0.36,0,WeatherCatV1.10B1570,2013-07-03 03:06:00,
2013-07-02 23:10:00,70.0,69.4,30.19,SSW,206,0.0,0.0,98,0.00,,,0.36,0,WeatherCatV1.10B1570,2013-07-03 03:10:00,
2013-07-02 23:15:00,70.0,69.4,30.19,SSW,206,0.0,0.0,98,0.00,,,0.36,0,WeatherCatV1.10B1570,2013-07-03 03:15:00,
2013-07-02 23:20:00,70.1,69.5,30.19,SSW,206,0.0,0.0,98,0.00,,,0.36,0,WeatherCatV1.10B1570,2013-07-03 03:20:00,
2013-07-02 23:25:00,70.3,69.7,30.18,SSW,206,0.0,0.0,98,0.00,,,0.36,0,WeatherCatV1.10B1570,2013-07-03 03:25:00,
2013-07-02 23:30:00,70.3,69.7,30.18,SSW,206,0.0,0.0,98,0.00,,,0.36,0,WeatherCatV1.10B1570,2013-07-03 03:30:00,
2013-07-02 23:35:00,70.4,69.8,30.18,ENE,78,0.0,0.0,98,0.00,,,0.36,0,WeatherCatV1.10B1570,2013-07-03 03:35:00,
2013-07-02 23:40:00,70.4,69.8,30.18,ENE,78,0.0,1.0,98,0.00,,,0.36,0,WeatherCatV1.10B1570,2013-07-03 03:40:00,
2013-07-02 23:45:00,70.5,69.9,30.18,ENE,78,0.0,0.0,98,0.00,,,0.36,0,WeatherCatV1.10B1570,2013-07-03 03:45:00,
2013-07-02 23:48:00,70.5,69.9,30.18,ENE,78,0.0,0.0,98,0.00,,,0.37,0,WeatherCatV1.10B1570,2013-07-03 03:48:00,
2013-07-02 23:53:00,70.6,70.0,30.18,ENE,78,0.0,0.0,98,0.00,,,0.37,0,WeatherCatV1.10B1570,2013-07-03 03:53:00,
2013-07-02 23:58:00,70.6,70.0,30.18,ENE,78,0.0,0.0,98,0.00,,,0.37,0,WeatherCatV1.10B1570,2013-07-03 03:58:00,
2013-07-02 23:59:00,70.6,70.0,30.18,ENE,78,0.0,0.0,98,0.00,,,0.37,0,WeatherCatV1.10B1570,2013-07-03 03:59:00,